Regional Weather Roundup
Issued by NWS

Home | Current Version | Previous Version | Text Only | Print | Product List | Glossary On
Versions: 1 2 3 4 5 6 7 8 9 10 11 12 13 14 15 16 17 18 19 20 21 22 23 24 25 26 27 28 29 30 31 32 33 34 35 36 37 38 39 40 41 42 43 44 45 46 47 48 49 50
000
ASUS43 KDTX 271901
RWRMI
MICHIGAN HOURLY REGIONAL WEATHER ROUNDUP
NATIONAL WEATHER SERVICE DETROIT/PONTIAC MI
300 PM EDT SAT MAY 27 2017

NOTE: "FAIR" INDICATES FEW OR NO CLOUDS BELOW 12,000 FEET WITH NO
SIGNIFICANT WEATHER AND/OR OBSTRUCTION TO VISIBILITY.

MIZ047>049-052>055-059>063-066>070-074>076-081>083-272000-
SOUTHEAST LOWER MICHIGAN

CITY           SKY/WX    TMP DP  RH WIND       PRES   REMARKS
ADRIAN         MOSUNNY   72  55  55 SE8       29.90F
ALMA           PTSUNNY   75  55  49 S5        29.90F
ANN ARBOR      PTSUNNY   73  56  54 CALM      29.89F
BAD AXE        PTSUNNY   70  54  56 CALM      29.91F
CARO           PTSUNNY   76  58  53 N3        29.89F
DETROIT CITY   SUNNY     72  56  57 SE10      29.90F
DETROIT        PTSUNNY   71  57  61 SE9       29.91F
FLINT          PTSUNNY   74  54  49 CALM      29.90F
GROSSE ILE     CLOUDY    67  58  73 S9        29.90F
HILLSDALE      CLOUDY    70  59  68 E3        29.91R
HOWELL         CLOUDY    74  51  44 E3        29.90S

CITY           SKY/WX    TMP DP  RH WIND       PRES   REMARKS
JACKSON        CLOUDY    73  55  53 CALM      29.90S
LAMBERTVILLE   SUNNY     71  54  55 SE8       29.90S
LANSING        CLOUDY    76  53  44 CALM      29.90F
LAPEER         CLOUDY    72  53  51 CALM      29.90F
MASON          CLOUDY    72  57  58 E6        29.90F
MONROE         SUNNY     70  53  55 SE10      29.90S
MT. CLEMENS    MOSUNNY   71  59  66 VRB6      29.90S
PONTIAC        PTSUNNY   71  54  54 E6        29.89F
PORT HOPE        N/A     58  54  86 E14       29.91S
PORT HURON     PTSUNNY   72  54  53 NW3       29.91S
TRI CITIES     MOSUNNY   74  55  51 CALM      29.89F
MIDLAND        FAIR      75  52  44 SE3       29.89S
TROY           MOSUNNY   74  51  45 CALM      29.92F
SAGINAW HB     MOSUNNY   73  50  43 CALM      29.89F
$$
MIZ043>046-050>051-056>058-064>065-071>073-077>080-272000-
SOUTHWEST LOWER MICHIGAN

CITY           SKY/WX    TMP DP  RH WIND       PRES   REMARKS
BATTLE CREEK   CLOUDY    72  57  59 CALM      29.91S
BENTON HARBOR  CLOUDY    68  58  70 NW7       29.90R
BIG RAPIDS     CLOUDY    75  51  42 S7        29.89S
COLDWATER      CLOUDY    71  59  65 SE6       29.90F
FREMONT        FAIR      77  47  34 CALM      29.88F
HOLLAND        PTSUNNY   75  55  49 W13       29.90R
GRAND RAPIDS   PTSUNNY   76  55  48 SE7       29.88F
IONIA          FAIR      74  52  46 CALM      29.89S
KALAMAZOO      CLOUDY    72  57  59 CALM      29.90S
LUDINGTON      SUNNY     64  53  69 W10       29.91R
MARSHALL       CLOUDY    72  58  60 CALM      29.89F
MOUNT PLEASANT CLOUDY    75  54  46 SW6       29.89S
MUSKEGON       MOSUNNY   72  51  47 W13       29.90S
SOUTH HAVEN    CLOUDY    70  59  67 NW7       29.91R
$$
MIZ016>042-272000-
NORTHERN LOWER MICHIGAN

CITY           SKY/WX    TMP DP  RH WIND       PRES   REMARKS
ALPENA         SUNNY     71  53  52 E13       29.90S
BEAVER ISLAND  SUNNY     67  53  62 SW12      29.90S
BELLAIRE       SUNNY     77  51  39 W8        29.87S
CADILLAC       MOSUNNY   75  53  46 S8        29.89S
CHARLEVOIX     SUNNY     66  55  67 NW9       29.92S
FRANKFORT      SUNNY     63  52  67 W7        29.91R
GAYLORD        CLOUDY    73  49  42 S7        29.88F
GRAYLING       PTSUNNY   75  51  43 E6        29.89F
HARBOR SPRINGS SUNNY     67  53  60 SW6       29.88S
HOUGHTON LAKE  CLOUDY    71  52  50 S6        29.90S
MANISTEE       SUNNY     68  53  58 W14       29.90R
OSCODA         SUNNY     71  52  50 SE8       29.90F
PELLSTON       CLOUDY    73  53  49 N10       29.87F
ROGERS CITY    MOSUNNY   68  52  57 E9        29.90S
TRAVERSE CITY  PTSUNNY   74  52  46 N6        29.85S
$$
MIZ007>008-015-272000-
EASTERN UPPER MICHIGAN

CITY           SKY/WX    TMP DP  RH WIND       PRES   REMARKS
KINROSS        MOSUNNY   73  53  49 SW8       29.87F
MACKINAC ISLAN SUNNY     66  54  63 E3        29.89S HAZE
NEWBERRY       SUNNY     70  53  54 S12G21    29.87F
S. S. MARIE    PTSUNNY   75  54  47 SW12G20   29.85F
MUNISING         N/A     78  53  41 S10G17    29.80F
$$
MIZ004>006-011>014-085-272000-
CENTRAL UPPER MICHIGAN

CITY           SKY/WX    TMP DP  RH WIND       PRES   REMARKS
MANISTIQUE     MOSUNNY   58  52  79 S10       29.88F
ESCANABA       SUNNY     66  54  65 S15       29.85F
SAWYER-GWINN   LGT RAIN  63  59  88 S7        29.85R
$$
MIZ001>003-009>011-084-272000-
WESTERN UPPER MICHIGAN

CITY           SKY/WX    TMP DP  RH WIND       PRES   REMARKS
IRON MOUNTAIN  CLOUDY    75  50  41 W7        29.81F
HOUGHTON       SUNNY     69  49  48 W17       29.81S
COPPER HARBOR    N/A     52  47  83 N12       29.81R
IRONWOOD       PTSUNNY   70  48  45 VRB3      29.85S
$$

ABBREVIATIONS USED IN REMARKS
   TC - TEMPERATURE IN CELSIUS
  WCI - WIND CHILL INDEX
   HX - HEAT INDEX
  VSB - VISIBILITY





USA.gov is the U.S. government's official web portal to all federal, state and local government web resources and services.